Merida, Mexico

12:54 AM CDT on July 27, 2017 (GMT -0500)
Lic Manuel Crecencio Rejon

Weather History for MMMD - October, 2013

Change the Weather History Date:

Sunday, October 13, 2013

  Actual Average Record
Temperature  
Mean Temperature 83 °F -  
Max Temperature 92 °F 89 °F 98 °F (2006)
Min Temperature 74 °F 72 °F 71 °F (2010)
Cooling Degree Days 18    
Growing Degree Days 33 (Base 50)    
Moisture  
Dew Point 72 °F    
Average Humidity 77    
Maximum Humidity 96    
Minimum Humidity 49    
Precipitation  
Precipitation 0.02 in - - ()
Sea Level Pressure  
Sea Level Pressure 29.97 in    
Wind  
Wind Speed 5 mph ()    
Max Wind Speed 11 mph    
Max Gust Speed -    
Visibility 6.1 miles    
Events      
Averages and records for this station are not official NWS values.
T = Trace of Precipitation, MM = Missing Value Source: Averaged Metar Reports

Daily Weather History Graph

Daily Weather History Graph

Search for Another Location

Airport or City:

Trip Planner

Search our weather history database for the weather conditions in past years. The results will help you decide how hot, cold, wet, or windy it might be!

Date:

Astronomy

Oct. 13, 2013 Rise Set
Actual Time 6:53 AM CDT 6:35 PM CDT
Civil Twilight 6:31 AM CDT 6:58 PM CDT
Nautical Twilight 6:05 AM CDT 7:23 PM CDT
Astronomical Twilight 5:39 AM CDT 7:49 PM CDT
Moon 2:51 PM CDT (10/13) 1:43 AM CDT (10/13)
Length of Visible Light 12h 26m
Length of Day
11h 42m
Waxing Gibbous, 69% of the Moon is Illuminated
Oct 13
Waxing Gibbous
Oct 18
Full
Oct 26
Last Quarter
Nov 3
New
Nov 9
First Quarter

Hourly Weather History & Observations

Time (CDT) Temp. Heat Index Dew Point Humidity Pressure Visibility Wind Dir Wind Speed Gust Speed Precip Events Conditions
12:50 AM 78 °F - 76 °F 92% 29.98 in 3 mi ENE 4.5 mph - -  
12:51 AM 77.0 °F - 73.4 °F 89% 29.97 in 7.0 mi East 6.9 mph - N/A   Clear
1:50 AM 77.0 °F - 73.4 °F 89% 29.96 in 7.0 mi East 8.1 mph - N/A   Clear
2:49 AM 77.0 °F - 73.4 °F 89% 29.96 in 7.0 mi East 6.9 mph - N/A   Clear
3:46 AM 77.0 °F - 73.4 °F 89% 29.96 in 7.0 mi East 4.6 mph - N/A   Clear
3:50 AM 77 °F - 76 °F 94% 29.96 in 3 mi East 4.5 mph - -  
4:52 AM 75.2 °F - 73.4 °F 94% 29.95 in 7.0 mi ENE 4.6 mph - N/A   Clear
5:52 AM 75.2 °F - 73.4 °F 94% 29.96 in 6.0 mi NE 4.6 mph - N/A   Clear
6:43 AM 75.2 °F - 73.4 °F 94% 29.97 in 4.0 mi ENE 4.6 mph - N/A   Clear
6:50 AM 75 °F - 74 °F 96% 29.99 in 3 mi NE 2.2 mph - -   Scattered Clouds
7:50 AM 77.0 °F - 71.6 °F 83% 29.99 in 6.0 mi ENE 5.8 mph - N/A   Clear
8:45 AM 80.6 °F 84.6 °F 71.6 °F 74% 30.01 in 7.0 mi East 6.9 mph - N/A   Clear
9:46 AM 82.4 °F 87.2 °F 71.6 °F 70% 30.01 in 7.0 mi East 9.2 mph - N/A   Partly Cloudy
9:50 AM 85 °F - 76 °F 67% 30.03 in 6 mi NE 2.2 mph - -   Scattered Clouds
10:46 AM 86.0 °F 93.4 °F 73.4 °F 66% 30.02 in 7.0 mi SE 8.1 mph - N/A   Scattered Clouds
11:51 AM 86.0 °F 90.4 °F 69.8 °F 58% 30.00 in 7.0 mi East 5.8 mph - N/A   Mostly Cloudy
12:45 PM 87.8 °F 92.6 °F 69.8 °F 55% 29.99 in 7.0 mi East 5.8 mph - N/A   Mostly Cloudy
12:50 PM 89 °F - 73 °F 50% 29.99 in 6 mi ESE 4.5 mph - -   Partly Cloudy
1:46 PM 89.6 °F 93.4 °F 68.0 °F 49% 29.95 in 7.0 mi SE 5.8 mph - N/A   Scattered Clouds
2:44 PM 86.0 °F 89.4 °F 68.0 °F 55% 29.92 in 7.0 mi ENE 5.8 mph - N/A   Mostly Cloudy
3:46 PM 86.0 °F 90.4 °F 69.8 °F 58% 29.93 in 7.0 mi NE 9.2 mph - N/A   Mostly Cloudy
3:50 PM 86 °F - 76 °F 64% 29.93 in 6 mi ENE 11.2 mph - -   Partly Cloudy
4:49 PM 78.8 °F - 69.8 °F 74% 29.92 in 7.0 mi Calm Calm - N/A   Mostly Cloudy
5:51 PM 80.6 °F 84.6 °F 71.6 °F 74% 29.93 in 7.0 mi Calm Calm - N/A   Partly Cloudy
6:49 PM 78.8 °F - 71.6 °F 78% 29.95 in 7.0 mi NNE 6.9 mph - N/A   Clear
6:50 PM 81 °F - 76 °F 79% 29.95 in 3 mi NNE 6.7 mph - -   Partly Cloudy
7:44 PM 78.8 °F - 71.6 °F 78% 29.96 in 7.0 mi ENE 6.9 mph - N/A   Clear
8:52 PM 78.8 °F - 71.6 °F 78% 29.98 in 7.0 mi NE 9.2 mph - N/A   Clear
9:42 PM 77.0 °F - 71.6 °F 83% 30.01 in 7.0 mi NE 9.2 mph - N/A   Clear
9:50 PM 78 °F - 74 °F 82% 29.99 in 3 mi NNE 6.7 mph - -   Partly Cloudy
10:46 PM 77.0 °F - 71.6 °F 83% 29.99 in 7.0 mi ENE 5.8 mph - N/A   Clear
11:45 PM 77.0 °F - 71.6 °F 83% 29.99 in 7.0 mi East 6.9 mph - N/A   Clear